Date,TemperatureHighF,TemperatureAvgF,TemperatureLowF,DewpointHighF,DewpointAvgF,DewpointLowF,HumidityHigh,HumidityAvg,HumidityLow,PressureMaxIn,PressureMinIn,WindSpeedMaxMPH,WindSpeedAvgMPH,GustSpeedMaxMPH,PrecipitationSumIn
2013-2-1,30.3,26.6,23.5,16.0,9.6,-99.9,60,51,41,30.21,29.73,13,-7,29,0.00
2013-2-2,28.0,23.2,18.5,18.0,12.7,8.0,83,65,46,30.28,30.07,12,3,22,0.00
2013-2-3,29.5,23.4,17.5,20.0,17.0,14.0,92,78,57,30.08,29.81,4,0,6,0.00
2013-2-4,28.9,25.1,21.7,20.0,12.5,8.0,87,60,41,29.99,29.81,17,3,29,0.00
2013-2-5,29.8,24.5,19.6,25.0,17.3,13.0,92,75,59,30.05,29.92,6,0,9,0.00
2013-2-6,38.0,29.3,23.5,27.0,18.8,4.0,94,69,37,30.40,29.93,8,1,12,0.00
2013-2-7,30.0,24.1,18.2,17.0,11.7,7.0,76,60,45,30.57,30.39,5,1,10,0.00
2013-2-8,30.7,28.1,26.5,29.0,22.5,-99.9,95,83,62,30.40,29.79,11,-8,20,0.00
2013-2-9,27.8,24.6,17.8,25.0,16.5,7.0,94,73,47,30.39,29.84,20,6,27,0.01
2013-2-10,29.6,17.6,4.7,17.0,9.0,2.0,87,71,45,30.56,30.32,5,0,12,0.01
2013-2-11,37.6,32.1,23.6,37.0,28.8,13.0,97,88,62,30.32,29.68,21,6,26,0.00
2013-2-12,42.7,38.5,34.5,35.0,27.8,20.0,96,67,52,29.97,29.71,19,5,23,0.00
2013-2-13,42.1,35.6,28.5,27.0,23.9,21.0,85,64,45,29.96,29.74,10,3,19,0.00
2013-2-14,43.4,34.8,26.5,28.0,24.9,22.0,86,68,46,29.99,29.75,12,3,15,0.00
2013-2-15,50.5,39.5,32.9,32.0,28.8,26.0,88,67,41,30.02,29.89,19,9,28,0.00
2013-2-16,32.6,30.3,27.7,30.0,21.6,12.0,95,71,48,30.03,29.82,28,14,30,0.00
2013-2-17,27.3,22.9,17.4,14.0,5.1,0.0,63,47,32,29.97,29.69,34,20,49,0.00
2013-2-18,36.4,24.4,17.3,16.0,5.2,1.0,60,45,27,30.22,29.98,31,10,41,0.00
2013-2-19,39.4,31.7,24.3,33.0,24.3,12.0,95,76,53,30.19,29.66,20,7,25,0.00
2013-2-20,34.0,29.9,25.5,32.0,14.4,7.0,92,54,38,29.96,29.68,25,9,32,0.00
2013-2-21,28.9,26.4,24.7,17.0,13.3,10.0,71,58,50,30.37,29.94,28,12,40,0.00
2013-2-22,35.7,30.0,24.3,28.0,21.1,17.0,80,70,57,30.46,30.29,24,7,30,0.00
2013-2-23,36.2,34.0,31.5,35.0,32.1,27.0,97,92,77,30.29,29.89,10,4,13,0.00
2013-2-24,39.5,35.4,32.7,35.0,30.3,23.0,97,83,60,30.00,29.78,24,9,29,0.00
2013-2-25,41.0,34.8,27.5,30.0,26.7,23.0,90,73,56,30.27,30.00,15,4,15,0.00
2013-2-26,44.5,35.9,27.5,31.0,27.2,25.0,93,73,49,30.34,30.05,12,3,18,0.00
2013-2-27,40.5,36.3,31.8,40.0,35.4,29.0,98,96,82,30.05,29.55,20,8,25,0.00
2013-2-28,40.3,36.5,32.9,38.0,35.2,32.0,98,95,86,29.64,29.58,11,3,12,0.00